Temperature
1 1 1 1 1 1 1 1 1 2 2 2 2 1 2 2 2 2 2 2 2 2 2 3 3 3 3 4 4 3 3 4 4 4 4 4 4 4 4 4 4 4 4 4
-0 1 1 1 1 1 1 1 1 1 1 1 1 1 1 1 1 1 1 1 1 1 1 2 2 2 3 3 3 3 3 3 3 3 3 3 3 3 3 3 3 3 3 3
-1 0 0 -0 -0 0 -0 -0 -0 -0 -0 0 -0 0 0 0 0 0 0 1 1 1 1 1 1 2 2 2 2 2 2 3 2 2 2 3 3 3 3 3 3 3 3 3
-1 -1 -1 -0 -0 -0 -1 -1 -1 -1 -1 -1 -0 -0 0 0 -0 -0 -0 -0 0 0 1 1 1 1 1 2 2 2 2 2 2 2 2 2 2 2 2 2 2 2 2 2
-2 -2 -1 -1 -1 -1 -1 -2 -2 -2 -2 -2 -1 -1 -1 -0 -1 -1 -1 -0 -0 -0 0 0 1 1 1 1 1 1 2 2 2 2 1 2 2 2 2 2 2 2 2 2
-3 -2 -2 -2 -2 -1 -1 -2 -2 -3 -3 -3 -2 -2 -2 -1 -1 -1 -1 -1 -1 -1 -0 -0 0 0 0 0 0 1 1 1 1 1 1 1 1 1 1 1 1 1 1 1
-4 -3 -3 -3 -2 -1 -2 -3 -3 -3 -3 -3 -3 -3 -2 -2 -2 -2 -2 -2 -2 -1 -1 -1 -1 -1 -1 -0 -0 0 0 0 0 0 0 0 0 0 0 0 0 0 0 0
-4 -4 -3 -3 -3 -3 -4 -3 -3 -3 -3 -3 -3 -3 -3 -3 -3 -3 -3 -2 -2 -2 -2 -1 -1 -1 -1 -1 -1 -0 -0 -0 -0 -0 0 0 0 0 -0 -0 -0 -0 -0 -0
-4 -4 -3 -3 -4 -4 -4 -4 -4 -4 -4 -4 -4 -4 -4 -4 -4 -3 -3 -3 -3 -3 -2 -2 -2 -2 -2 -2 -1 -1 -1 -1 -1 -0 -0 -0 -0 -0 -1 -1 -1 -1 -1 -1
-5 -4 -4 -4 -4 -5 -5 -5 -5 -5 -5 -5 -5 -5 -5 -4 -4 -4 -4 -4 -3 -3 -3 -3 -2 -2 -2 -2 -2 -2 -1 -1 -1 -1 -1 -1 -1 -1 -1 -1 -1 -1 -1 -1
-6 -5 -5 -5 -5 -6 -6 -6 -6 -5 -5 -5 -5 -5 -5 -5 -5 -4 -4 -4 -4 -4 -4 -3 -3 -3 -3 -3 -2 -2 -2 -2 -2 -1 -1 -1 -1 -1 -1 -1 -1 -1 -1 -2
-6 -6 -6 -6 -6 -6 -6 -6 -6 -6 -6 -6 -6 -6 -6 -6 -5 -5 -5 -4 -4 -4 -4 -4 -4 -3 -3 -3 -3 -3 -2 -2 -2 -2 -2 -2 -2 -2 -2 -2 -2 -2 -2 -2
-6 -6 -7 -7 -7 -7 -7 -7 -7 -7 -7 -7 -7 -7 -6 -6 -6 -5 -5 -5 -5 -5 -5 -4 -4 -4 -4 -4 -4 -3 -3 -3 -3 -3 -3 -3 -3 -2 -3 -3 -3 -3 -3 -3
-7 -7 -7 -7 -7 -7 -7 -7 -7 -7 -7 -7 -7 -7 -7 -7 -6 -6 -6 -6 -5 -5 -5 -5 -5 -5 -4 -4 -4 -4 -4 -4 -3 -3 -3 -3 -3 -3 -3 -3 -3 -3 -3 -3
-7 -8 -8 -8 -8 -8 -8 -8 -8 -8 -8 -8 -7 -7 -7 -7 -7 -7 -6 -6 -6 -6 -6 -6 -5 -5 -5 -5 -4 -4 -4 -4 -4 -4 -4 -4 -4 -4 -4 -4 -4 -4 -4 -4
-8 -8 -8 -8 -8 -8 -8 -8 -8 -8 -8 -8 -8 -8 -8 -8 -7 -7 -7 -7 -7 -7 -7 -6 -6 -6 -6 -5 -5 -5 -5 -5 -5 -5 -5 -5 -5 -5 -5 -5 -5 -5 -5 -5
-9 -9 -9 -9 -9 -9 -9 -9 -9 -9 -9 -9 -9 -8 -8 -8 -8 -8 -7 -7 -7 -7 -7 -7 -7 -7 -6 -6 -6 -6 -5 -5 -5 -5 -5 -5 -6 -6 -6 -6 -6 -6 -5 -5
-9 -9 -9 -9 -9 -9 -9 -9 -9 -9 -9 -9 -9 -9 -8 -8 -8 -8 -8 -8 -7 -8 -8 -8 -7 -7 -7 -7 -6 -6 -6 -6 -6 -6 -6 -6 -6 -6 -6 -6 -6 -6 -6 -6
-9 -9 -9 -9 -10 -10 -9 -9 -9 -9 -9 -9 -9 -9 -9 -9 -9 -9 -9 -8 -8 -8 -8 -8 -8 -7 -7 -7 -7 -7 -7 -7 -7 -7 -7 -7 -7 -7 -7 -7 -7 -7 -7 -7
-9 -9 -10 -10 -10 -10 -10 -10 -9 -9 -9 -9 -9 -9 -9 -9 -9 -9 -9 -9 -9 -9 -9 -9 -8 -8 -8 -8 -8 -7 -7 -7 -7 -7 -7 -7 -7 -7 -7 -7 -7 -7 -7 -7
-10 -10 -10 -10 -10 -10 -10 -10 -10 -10 -10 -9 -10 -10 -10 -10 -9 -9 -10 -9 -9 -9 -9 -9 -9 -8 -8 -8 -8 -8 -8 -8 -8 -8 -8 -8 -8 -8 -8 -8 -7 -8 -8 -8
-10 -10 -10 -10 -10 -10 -10 -10 -10 -10 -10 -10 -10 -10 -10 -10 -10 -10 -10 -10 -10 -10 -10 -9 -9 -9 -9 -9 -9 -9 -9 -8 -9 -9 -8 -8 -8 -8 -8 -8 -8 -8 -8 -8
-10 -10 -10 -10 -10 -10 -10 -10 -10 -10 -10 -10 -10 -11 -11 -11 -11 -11 -10 -10 -10 -10 -10 -10 -10 -10 -9 -9 -9 -9 -9 -9 -9 -9 -9 -9 -9 -9 -9 -9 -8 -8 -8 -8
-10 -10 -11 -11 -11 -10 -10 -10 -11 -11 -11 -11 -11 -11 -11 -11 -11 -11 -11 -11 -11 -11 -10 -10 -10 -10 -10 -10 -10 -10 -10 -10 -10 -10 -9 -9 -9 -9 -9 -9 -9 -9 -9 -9
-11 -11 -11 -11 -11 -11 -11 -11 -11 -11 -11 -11 -11 -12 -12 -12 -11 -11 -11 -11 -11 -11 -11 -11 -10 -10 -10 -10 -10 -10 -10 -10 -10 -10 -10 -10 -10 -10 -9 -9 -9 -9 -9 -9
-11 -11 -11 -11 -12 -12 -12 -12 -12 -12 -12 -12 -12 -12 -12 -12 -12 -12 -12 -12 -11 -11 -11 -11 -11 -11 -11 -11 -11 -11 -11 -10 -10 -10 -10 -10 -10 -10 -10 -10 -10 -10 -10 -10
-11 -12 -12 -12 -12 -12 -12 -12 -12 -13 -13 -12 -12 -12 -12 -12 -12 -12 -12 -12 -12 -12 -11 -11 -11 -11 -11 -11 -11 -11 -11 -11 -11 -11 -11 -11 -10 -10 -10 -10 -10 -10 -10 -10
Wind_Speed
9 9 5 6 7 5 4 5 6 8 7 8 8 8 8 6 6 6 6 6 5 4 4 3 2 2 2 2 2 1 1 2 3 3 3 2 2 2 2 2 3 3 3 3
7 7 5 8 7 7 7 6 8 8 8 6 8 7 7 7 6 5 5 6 6 5 5 4 3 3 3 3 3 2 2 3 3 2 2 3 3 2 2 2 3 3 3 3
6 7 5 5 5 4 3 3 4 6 7 8 8 8 6 6 6 5 6 6 6 6 5 4 4 4 4 4 3 2 2 3 3 3 3 3 3 2 3 3 2 3 3 3
4 3 4 3 2 3 3 3 4 5 7 8 8 8 5 4 5 7 7 7 6 6 6 5 4 4 4 3 3 3 3 3 3 3 3 2 2 3 3 3 3 3 3 3
2 4 5 4 6 6 4 3 6 9 11 11 9 6 5 7 8 7 7 7 6 6 5 5 4 3 3 3 3 3 4 4 3 3 3 3 3 3 3 2 2 2 2 2
2 3 3 4 10 10 2 2 9 10 11 11 10 6 7 10 9 8 8 6 6 6 5 4 4 3 2 3 3 4 4 4 3 3 3 3 3 3 2 2 2 2 1 1
3 4 3 5 10 7 3 6 11 10 10 9 6 6 9 10 9 8 8 7 7 6 5 5 4 2 2 3 4 4 3 3 2 2 2 3 2 2 1 2 2 1 1 1
1 2 4 7 6 4 5 7 9 10 9 9 9 10 10 9 9 9 8 8 7 6 6 6 4 2 2 4 4 3 2 2 2 2 1 1 1 1 1 2 2 1 1 1
2 3 3 3 3 5 6 8 9 10 11 10 10 10 11 10 9 9 8 7 7 6 7 6 4 2 3 4 2 1 1 2 2 1 0 0 1 1 1 1 2 1 1 1
3 4 5 5 5 8 9 9 10 10 11 10 10 11 10 10 9 9 8 8 7 7 6 6 6 4 3 3 2 1 1 1 1 0 0 1 1 1 1 2 2 2 1 1
4 5 6 5 8 10 11 11 11 11 10 10 10 10 10 9 9 8 8 7 6 6 6 6 6 6 4 3 1 1 1 1 1 0 1 1 1 0 1 1 2 3 2 2
4 5 6 9 10 11 11 12 12 12 12 11 10 10 10 9 8 7 7 7 7 7 6 6 5 5 4 3 1 0 1 1 1 0 1 1 1 2 4 2 3 2 2 2
5 7 8 9 9 10 10 11 11 11 11 11 10 9 9 8 7 7 7 7 7 6 5 5 5 5 4 3 2 1 1 1 1 1 1 1 1 2 3 4 6 6 5 5
6 6 7 8 9 11 11 11 11 10 10 9 9 8 8 7 7 7 7 7 6 5 5 5 5 5 4 3 2 2 1 1 1 1 1 1 2 2 3 3 3 3 4 5
6 6 7 9 10 10 10 10 11 11 10 10 8 8 8 7 7 7 7 7 6 5 6 5 5 5 5 3 3 2 2 1 1 2 2 2 2 3 3 4 3 3 3 4
9 8 8 8 10 10 11 10 10 11 10 10 9 9 8 6 6 6 6 6 6 6 6 6 6 6 5 4 3 2 2 3 2 2 3 3 3 3 3 3 3 3 3 2
7 8 9 11 11 11 11 10 10 10 10 9 9 9 7 6 6 6 7 6 6 5 5 6 6 6 6 5 3 2 2 3 4 4 3 3 3 3 3 3 3 2 2 3
5 6 8 8 9 10 11 10 10 10 9 9 8 7 6 6 6 6 6 6 6 6 7 7 7 7 5 5 4 3 3 3 3 3 3 3 3 3 3 3 3 3 3 3
7 7 8 8 8 8 9 9 10 9 9 8 7 6 5 5 5 5 5 5 6 7 7 7 9 7 6 5 5 3 3 3 3 3 3 3 3 3 3 2 2 3 3 3
7 7 8 8 8 8 8 9 9 8 8 7 6 5 5 5 5 4 4 4 4 5 6 7 7 6 5 5 5 3 3 3 3 3 3 2 2 2 2 2 2 2 2 2
7 8 8 8 8 8 8 8 8 8 7 6 5 5 6 5 5 4 4 4 5 6 6 7 6 5 4 5 5 3 3 3 3 2 2 2 2 2 2 2 2 2 2 2
6 7 8 8 8 8 8 8 8 7 7 6 6 6 5 5 5 4 4 3 5 8 6 4 4 5 6 6 3 3 3 3 2 2 2 2 1 1 2 2 1 1 1 1
6 6 7 7 7 8 8 7 7 6 6 6 6 5 5 4 4 4 5 5 4 7 6 4 6 8 7 5 3 3 3 3 2 2 2 1 1 1 1 1 1 1 1 1
6 6 7 7 6 6 7 8 7 6 5 5 5 5 4 4 4 3 3 7 8 8 5 6 8 8 7 4 3 3 2 2 2 2 2 1 1 1 1 1 1 1 1 2
5 5 5 6 6 5 6 7 6 6 5 5 5 5 4 3 3 4 4 5 7 7 4 6 8 8 5 3 3 3 2 2 2 2 1 1 1 1 1 1 1 1 2 2
4 4 4 4 4 4 4 5 5 5 5 5 5 5 5 4 4 4 4 5 6 7 5 4 4 5 3 3 3 3 2 3 3 3 2 2 2 2 2 2 2 2 2 2
4 4 4 4 4 4 4 4 4 5 5 5 6 5 5 5 5 5 5 5 5 5 4 4 4 3 3 3 3 3 2 2 2 2 2 2 2 2 2 2 2 3 3 3
Wind_Direction
262 276 278 285 296 296 256 247 245 267 272 302 315 315 324 336 351 359 355 351 344 336 324 318 312 303 289 280 279 266 263 260 253 251 242 227 218 219 222 224 230 224 223 230
280 274 280 293 300 288 276 274 269 280 287 315 315 324 337 342 345 341 337 336 332 326 323 311 301 301 296 287 276 256 245 260 261 244 231 225 224 219 222 233 237 226 220 219
276 294 304 291 296 282 299 308 283 276 289 316 326 324 322 326 329 323 322 324 324 318 308 303 299 292 283 273 279 261 257 261 260 240 224 227 226 220 223 233 232 228 225 217
276 318 256 248 351 329 299 347 351 328 325 323 313 309 317 343 337 328 328 323 321 321 311 305 303 301 297 284 270 259 258 258 253 235 229 224 221 228 234 233 229 233 231 224
259 263 269 325 341 332 292 306 5 344 333 333 333 337 338 347 340 326 322 318 311 310 306 306 308 305 305 294 278 271 265 258 250 235 228 224 228 232 236 223 228 236 228 219
250 257 271 315 321 319 293 305 354 349 339 339 346 341 320 331 332 331 331 330 326 324 322 314 309 311 295 290 288 280 277 271 261 243 226 224 231 235 230 204 212 214 216 212
248 249 266 322 329 351 42 316 333 338 334 335 330 303 307 320 326 326 325 327 328 324 318 310 306 301 278 286 282 284 290 289 279 255 232 223 226 231 203 180 172 182 182 196
291 269 277 340 3 15 313 317 326 329 329 324 317 317 322 324 326 329 329 330 329 324 317 317 314 292 277 276 283 297 299 292 285 270 249 207 176 192 165 153 152 161 143 135
229 244 289 344 334 328 330 321 323 325 323 320 317 319 322 322 323 325 326 329 329 323 318 324 328 311 276 287 290 300 312 293 277 268 267 184 162 159 145 148 152 160 161 168
279 288 312 330 340 339 333 325 321 320 319 320 316 317 320 320 322 324 325 327 328 329 325 325 329 330 309 305 311 328 338 318 290 159 70 50 75 146 157 168 167 163 168 163
284 303 323 334 342 335 330 329 328 328 327 325 322 320 320 317 318 319 322 326 326 325 322 325 334 338 334 333 346 358 350 346 6 66 119 86 61 85 159 187 183 173 180 173
279 304 303 301 316 326 328 327 326 325 325 324 320 314 316 315 316 319 322 326 329 330 331 333 338 339 337 340 342 20 1 349 1 65 85 102 98 59 47 70 86 99 121 129
279 294 289 295 311 323 321 319 318 317 315 315 316 314 314 314 317 322 323 325 325 326 331 338 341 339 341 346 351 7 31 3 4 61 84 93 109 112 88 60 61 67 73 82
309 313 306 313 313 318 318 317 316 315 315 314 313 315 315 317 321 325 325 326 329 336 342 344 343 343 346 353 360 9 21 25 51 66 70 75 87 99 105 102 81 54 51 63
320 316 299 303 310 318 322 324 325 325 325 325 326 327 325 323 323 324 332 340 349 359 358 355 353 349 352 3 12 18 31 38 54 67 70 73 81 88 90 89 85 73 59 49
316 317 318 321 324 327 330 331 328 325 327 326 327 327 325 325 329 338 345 351 359 357 356 359 356 352 357 8 17 25 36 37 51 71 78 82 82 84 84 83 78 69 56 37
322 326 327 326 325 325 325 323 321 319 321 321 320 321 328 337 346 350 349 353 359 357 3 5 358 357 7 16 26 32 42 49 53 67 74 78 81 81 80 81 77 67 52 42
304 304 310 311 315 318 320 322 322 321 318 314 319 329 337 342 343 343 344 353 3 6 7 3 0 2 12 18 24 37 50 56 60 69 70 72 76 77 78 75 67 62 49 43
327 326 327 328 326 323 322 323 323 321 322 326 329 329 328 332 335 336 347 2 4 359 354 356 360 7 10 12 21 43 56 59 60 61 66 69 65 64 66 69 65 55 49 42
331 330 330 330 331 330 327 326 326 326 329 333 336 337 337 335 335 343 355 359 352 341 340 350 358 3 3 7 17 43 58 63 65 62 61 64 64 62 60 60 59 53 45 38
325 327 329 329 328 329 330 330 332 332 332 338 340 336 332 335 345 354 357 353 348 349 350 355 1 360 2 7 19 45 54 60 63 64 63 63 60 56 53 50 46 39 35 30
318 321 324 326 328 328 330 332 334 334 339 340 341 341 344 349 352 355 357 344 340 347 353 353 355 359 4 13 34 42 46 49 52 53 52 51 52 50 43 40 38 24 18 14
314 316 320 323 324 322 326 333 336 338 340 343 345 347 346 339 342 347 344 344 345 348 353 355 353 360 9 26 36 37 36 37 37 34 28 24 25 29 26 14 4 353 349 347
316 319 320 321 327 333 336 337 338 340 339 338 343 343 343 342 343 345 332 334 345 347 351 349 354 1 14 28 25 25 24 22 21 20 14 7 11 14 5 351 340 333 328 323
318 320 325 331 336 334 331 334 339 343 346 347 346 348 349 344 333 332 334 335 342 347 348 348 355 5 16 14 11 9 7 4 3 10 12 1 350 338 327 321 311 304 303 301
325 325 322 320 319 323 328 335 339 341 344 344 344 347 349 348 343 340 342 345 351 356 358 354 354 0 4 360 354 350 350 346 353 360 348 337 325 319 313 312 308 299 293 289
331 330 332 334 336 336 335 336 336 336 337 334 334 339 343 345 345 347 347 347 348 350 349 348 350 351 349 346 343 342 339 339 339 335 331 326 317 308 305 303 300 297 293 289
Height
1498 1494 1493 1492 1489 1488 1487 1485 1485 1478 1477 1474 1472 1470 1467 1465 1462 1461 1460 1458 1457 1456 1455 1454 1454 1454 1453 1453 1453 1453 1453 1453 1453 1453 1453 1454 1454 1455 1456 1456 1457 1457 1458 1458
1498 1492 1491 1489 1487 1486 1484 1483 1480 1477 1476 1475 1472 1469 1466 1464 1462 1460 1459 1458 1456 1455 1453 1452 1452 1451 1451 1450 1450 1450 1450 1450 1450 1450 1450 1450 1451 1451 1452 1452 1453 1453 1454 1454
1499 1492 1490 1491 1488 1485 1484 1483 1481 1480 1478 1473 1470 1467 1466 1463 1461 1459 1457 1456 1454 1453 1452 1451 1450 1449 1448 1447 1447 1447 1446 1446 1446 1447 1447 1447 1448 1448 1448 1448 1449 1449 1450 1450
1498 1496 1499 1490 1486 1485 1483 1482 1480 1478 1476 1473 1470 1466 1463 1461 1460 1458 1456 1454 1452 1451 1449 1448 1447 1446 1445 1444 1444 1444 1443 1443 1443 1443 1444 1444 1444 1444 1444 1445 1445 1445 1446 1446
1499 1498 1491 1489 1487 1486 1484 1482 1481 1479 1475 1471 1468 1463 1461 1460 1459 1457 1454 1452 1450 1449 1448 1446 1444 1443 1442 1441 1441 1440 1440 1440 1440 1440 1440 1440 1440 1440 1441 1441 1441 1442 1442 1443
1501 1499 1495 1495 1488 1483 1482 1483 1481 1479 1476 1473 1468 1466 1463 1459 1457 1454 1452 1450 1448 1447 1445 1443 1442 1441 1439 1438 1437 1437 1437 1437 1437 1437 1437 1437 1437 1437 1437 1438 1438 1439 1439 1440
1504 1502 1497 1495 1489 1484 1489 1490 1484 1481 1478 1474 1471 1469 1464 1459 1456 1453 1450 1448 1446 1444 1442 1441 1439 1438 1436 1435 1435 1434 1434 1434 1434 1434 1434 1434 1434 1434 1435 1435 1435 1436 1437 1437
1505 1504 1502 1494 1491 1493 1493 1489 1485 1481 1478 1474 1470 1465 1461 1458 1454 1451 1448 1446 1444 1441 1439 1437 1436 1435 1433 1432 1432 1432 1432 1431 1431 1431 1431 1431 1431 1432 1432 1432 1433 1433 1434 1435
1505 1504 1499 1496 1495 1493 1491 1488 1484 1480 1476 1472 1468 1463 1460 1456 1452 1449 1446 1444 1441 1439 1437 1434 1433 1432 1431 1430 1430 1429 1429 1429 1429 1429 1429 1429 1429 1429 1430 1430 1431 1431 1432 1432
1502 1499 1497 1495 1493 1491 1489 1486 1482 1478 1474 1470 1465 1461 1457 1454 1450 1447 1444 1441 1439 1437 1434 1432 1430 1429 1428 1427 1427 1427 1426 1426 1426 1426 1427 1427 1427 1427 1428 1428 1429 1429 1430 1430
1502 1499 1496 1493 1492 1490 1486 1483 1479 1475 1471 1467 1463 1459 1456 1452 1449 1445 1442 1440 1437 1434 1432 1429 1428 1426 1425 1425 1424 1424 1424 1424 1424 1424 1425 1425 1425 1426 1426 1427 1427 1428 1429 1429
1504 1501 1499 1495 1491 1488 1484 1480 1476 1472 1467 1464 1461 1457 1454 1450 1447 1444 1441 1438 1435 1432 1429 1427 1425 1424 1423 1423 1422 1422 1422 1422 1422 1423 1423 1423 1424 1424 1425 1425 1426 1427 1428 1428
1502 1499 1496 1492 1489 1486 1482 1478 1474 1470 1466 1461 1458 1455 1451 1448 1445 1442 1439 1436 1433 1430 1428 1426 1424 1422 1421 1421 1421 1421 1420 1421 1421 1421 1421 1422 1422 1422 1423 1424 1425 1426 1426 1427
1499 1496 1492 1489 1486 1482 1479 1474 1470 1466 1462 1459 1455 1451 1448 1445 1442 1440 1437 1435 1432 1429 1427 1425 1423 1421 1420 1420 1419 1419 1419 1419 1420 1420 1420 1420 1421 1421 1422 1422 1423 1424 1425 1426
1496 1494 1491 1487 1483 1479 1475 1471 1466 1462 1458 1455 1451 1448 1445 1442 1440 1438 1435 1433 1430 1428 1425 1423 1422 1420 1419 1419 1418 1418 1418 1418 1418 1418 1419 1419 1420 1420 1421 1421 1422 1423 1424 1425
1494 1491 1487 1484 1480 1476 1472 1467 1463 1459 1456 1452 1449 1446 1443 1441 1438 1436 1434 1431 1429 1426 1424 1422 1421 1420 1418 1417 1417 1417 1417 1417 1417 1417 1417 1418 1419 1419 1420 1421 1422 1422 1423 1424
1491 1488 1484 1480 1477 1473 1470 1466 1462 1458 1454 1450 1447 1445 1442 1439 1437 1434 1432 1430 1428 1426 1424 1422 1421 1419 1418 1417 1416 1416 1416 1416 1416 1416 1417 1418 1418 1419 1420 1421 1422 1422 1423 1423
1491 1487 1484 1480 1476 1471 1467 1464 1460 1456 1452 1449 1446 1443 1440 1438 1436 1434 1432 1430 1428 1426 1424 1422 1421 1419 1418 1417 1416 1416 1416 1416 1416 1417 1418 1418 1419 1419 1420 1421 1421 1422 1422 1423
1488 1484 1481 1477 1474 1470 1466 1462 1458 1454 1450 1447 1444 1442 1440 1438 1435 1434 1432 1429 1427 1425 1424 1423 1421 1420 1418 1418 1417 1417 1416 1416 1417 1417 1418 1418 1419 1419 1420 1420 1421 1421 1421 1422
1485 1482 1478 1475 1471 1468 1464 1460 1456 1452 1449 1446 1443 1441 1439 1437 1435 1433 1431 1429 1428 1426 1425 1423 1421 1420 1419 1418 1418 1417 1417 1417 1417 1417 1418 1418 1419 1419 1420 1420 1420 1420 1421 1421
1482 1479 1476 1472 1469 1465 1462 1458 1454 1451 1447 1445 1442 1440 1438 1436 1435 1433 1431 1429 1428 1427 1425 1423 1422 1421 1420 1419 1418 1418 1417 1417 1417 1418 1418 1418 1419 1419 1419 1419 1420 1420 1420 1420
1480 1477 1473 1470 1466 1463 1460 1457 1453 1450 1446 1444 1442 1440 1437 1436 1434 1432 1431 1430 1428 1427 1425 1423 1422 1421 1420 1419 1418 1418 1417 1417 1417 1417 1418 1418 1418 1418 1418 1419 1419 1419 1419 1419
1477 1475 1471 1468 1465 1461 1458 1455 1452 1449 1446 1443 1441 1439 1437 1435 1434 1432 1430 1429 1427 1426 1425 1423 1422 1421 1421 1419 1418 1418 1417 1417 1417 1417 1417 1417 1417 1417 1417 1418 1418 1418 1418 1417
1475 1472 1469 1466 1463 1459 1456 1453 1451 1448 1446 1443 1441 1439 1437 1435 1433 1432 1431 1429 1427 1426 1424 1423 1422 1421 1420 1419 1418 1418 1417 1417 1416 1416 1416 1416 1416 1416 1416 1416 1416 1416 1416 1416
1473 1470 1467 1464 1461 1458 1455 1452 1450 1448 1445 1443 1441 1439 1437 1435 1433 1432 1430 1428 1427 1425 1424 1423 1422 1421 1420 1419 1418 1417 1417 1416 1416 1416 1415 1415 1415 1415 1415 1414 1414 1414 1414 1414
1470 1468 1465 1462 1460 1457 1454 1452 1449 1447 1444 1442 1440 1438 1436 1435 1433 1431 1429 1428 1426 1424 1423 1422 1421 1420 1419 1418 1417 1416 1416 1415 1415 1414 1414 1413 1413 1413 1412 1412 1412 1412 1411 1411
1468 1466 1463 1461 1459 1456 1454 1451 1449 1446 1444 1442 1439 1438 1436 1434 1432 1430 1428 1427 1425 1423 1422 1421 1420 1418 1418 1417 1416 1415 1414 1413 1413 1412 1412 1411 1411 1410 1410 1410 1409 1409 1408 1408